Voltar ao catálogo

STARLINK-34903

AtivoComunicaçõesVLEO
NORAD 65372·PAYLOAD·🇺🇸 United States

Lançado Aug 28, 2025 de Cape Canaveral Space Force Station

Loading…

Próximas Passagens (próximas 24 horas)

TLE

AtualizadoSource: CelesTrak SupGP

Época: Sep 14, 2026, 21:18 UTC

1 65372C 25190X   26257.88798611  .00011610  00000+0  34303-3 0  2571
2 65372  53.1590   7.6053 0001074  85.7096  42.0129 15.34385315    13

Acompanhe STARLINK-34903 em tempo real com AllMySat

Download on the App Store